Погода Фролово

Поиск расширенной информации на нашем сайте:

Полезная информация:

Новости сайта



02.01.2020
Опубликован Долгосрочный прогноз погоды по городам России и ближнего зарубежья на январь 2020 года.
Карты: Прогноз на январь и февраль 2020 года, Сравнение прогнозируемой аномалии приземной температуры воздуха на январь 2020 года по разным моделям.




Погода Фролово - сегодня

Время (UTC), дата Ветер
(°,м/с) 
Видим.   Явления Облачность Т
(°С)
Тd
(°С)
f(%) Тe
(°С)
Pmin
(гПа)
dP
(гПа)
Po
(мм)
O2
(г/м3)
Тmin Tmax R s Состояние
почвы
12 18.10.20 200 (Ю) 10 км    8/0 средняя 
[Ac As]
+19.7 +10.5 55 +23  1011.8  -0.6  748  279           
15 18.10.20 230 (ЮЗ) 3{11}  10 км    8/8 600 м 
[Sc]
+22.6 +9 42 +23  1005.4  -1.6  744  275    +24.7       
18 18.10.20 тихо ()   20000 м    ясно 
+12.1 +9.4 84 +13  1014  1.3  750  288           
21 18.10.20 тихо ()   20000 м    ясно 
+11.3 +7.4 77 +11  1015.4  1.4  751  289           
00 19.10.20 340 (С) 20000 м    ясно 
+10.6 +5.5 71 +12  1016.4  752  291           
03 19.10.20 тихо ()   20000 м    8/0 средняя 
[Ac As]
+5.4 +3.5 88 +5  1017.8  1.1  752  297  +5.4        сухая 
06 19.10.20 340 (С) 10 км    3/0 верхняя 
[Cs]
+9.2 +2.5 63 +9  1019.2  1.6  754  293           
09 19.10.20 310 (СЗ) 10 км    4/0 верхняя 
[Cs]
+12.6 +2.3 49 +13  1019  754  290           
12 19.10.20 340 (С) 10 км    4/0 верхняя 
[Cs]
+13.3 -1.1 37 +14  1017.8  -1.2  753  289           
15 19.10.20 340 (С) 20000 м    10/0 верхняя 
[Cs]
+9.4 -0.6 50 +10  1018  -0.3  752  293    +13.3       
18 19.10.20 тихо ()   20000 м    10/0 средняя 
[Ac As]
+7.7 +0.5 60 +8  1018.4  0.6  753  295           
21 19.10.20 180 (Ю) 20000 м    10/0 средняя 
[Ac As]
+8 +0.8 60 +9  1019.1  0.7  753  295           
00 20.10.20 270 (З) 20000 м    ясно 
+3.1 -0.6 77 +4  1019.6  0.3  754  300           
03 20.10.20 280 (З) 20000 м    ясно 
+2.8 -0.3 80 +4  1020.7  1.1  754  301  +2.8        сухая 
06 20.10.20 310 (СЗ) 10 км    ясно 
+8.4 +1.7 63 +8  1021.7  1.3  755  295           
09 20.10.20 280 (З) 10 км    3/3 1000 м 
[Cu hum]
+12.6 -3.4 33 +12  1021.3  -0.2  755  291           
12 20.10.20 290 (З) 10 км    ясно 
+12.5 -6.3 26 +12  1020.5  -0.9  755  291           
15 20.10.20 270 (З) 20000 м    3/0 средняя 
[Ac und]
+6.8 -6.2 39 +8  1021.1  0.4  755  297    +13.2       
18 20.10.20 250 (З) 20000 м    8/0 средняя 
[Ac und]
+2.3 -6 54 +3  1021.7  0.2  755  302           
21 20.10.20 270 (З) 20000 м    ясно 
+2.2 -4.7 60 +3  1022.2  0.5  755  302           
00 21.10.20 250 (З) 20000 м    ясно 
+0.6 -3.8 72 1023.1  0.9  756  304           
03 21.10.20 270 (З) 20000 м    ясно 
-1.8 -3.8 86 -1  1024.5  1.2  757  307  -1.9        влажная 
06 21.10.20 300 (СЗ) 10 км    ясно 
+4.6 -1.2 66 +3  1025.7  1.6  758  301  -2.1         
09 21.10.20 290 (З) 10 км    6/6 1000 м 
[Cu med, cong]
+8.3 -3.5 43 +7  1025.8  0.2  758  297           
12 21.10.20 300 (СЗ) 3{11}  10 км    8/0 верхняя 
[Cs]
+8.4 -5 38 +8  1025.4  -0.4  758  297           
Время (UTC), дата Ветер
(°,м/с) 
Видим.   Явления Облачность Т
(°С)
Тd
(°С)
f(%) Тe
(°С)
Pmin
(гПа)
dP
(гПа)
Po
(мм)
O2
(г/м3)
Тmin Tmax R s Состояние
почвы

Для получения пояснительной информации подведите курсор к названию столбца.

ПОГОДА Фролово - архив

Всё, что Вы хотите узнать о погоде Фролово - удобно и подробно!

Выберите нужную дату (начиная с 1 января 2019* года) и нажмите кнопку "Найти".
Будут отображены архивные сводки погоды по пункту Фролово, начиная с указанной даты.


Отображать данные в формате CSV (для использования в таблицах Excel)


Внимание! Наш архив погоды предназначен исключительно для личного некоммерческого использования в познавательных целях. Если Вам необходимы официальные справки о состоянии погоды (для производственных, юридических, коммерческих и т.п. целей), обращайтесь в органы Росгидромета.

*Примечание: данная дата относится к архиву по метеостанциям СССР (Россия, СНГ, Балтия).
Архив по метеостанциям Зарубежной Европы и Азии (кроме Китая) хранится 10 дней, по другим регионам земного шара (Китай, Африка, Америка, Австралия, Океания) - 1 день.

Фролово - район местоположения метеостанции


Название, широта, долгота, высота метеостанции:
Фролово 49.8°ш. 43.7°д. 119 м над ур. моря [Российская Федерация]

Дополнительная информация

В oтличие oт бoльшинства пoгoдных сайтoв мы публикуем пoдрoбную метеoинфoрмацию в детальнoм прoфессиoнальнoм фoрмате.

Характеристики температуры и влажнoсти вoздуха измеряются на высoте 2 м в тени вдали oт зданий и деревьев.
Скoрoсть ветра измеряется на высoте 10 м (на урoвне рoста челoвека скoрoсть ветра ниже в 1.5-2 раза). Если метеoстанция нахoдится в гoрoде или в лесу, тo скoрoсть ветра занижена на 2-4 м/с пo сравнению с oткрытым местoм. Скoрoсть ветра над акватoриями крупных рек и oзёр, а также на вершинах хoлмoв на 2-5 м/с выше, чем в oбычных услoвиях.
Атмoсфернoе давление в разных тoчках местнoсти мoжет значительнo oтличаться oт давления на метеoстанции, в зависимoсти oт услoвий рельефа (при пoдъёме на 10 м давление пoнижается примернo на 1 мм рт.ст.).